Skip Page Navigation
NASA JPL Caltech
NASA Logo - Jet Propulsion Laboratory + View the NASA Portal
+ Center for Near-Earth Object Studies
JPL Home Earth Solar System Stars & Galaxies Technology
JPL Solar System Dynamics
BODIES ORBITS EPHEMERIDES TOOLS PHYSICAL DATA DISCOVERY FAQ SITE MAP
JPL Small-Body Database Browser
Search: [ help ]  
13683 (1997 PV3)
Classification: Main-belt Asteroid          SPK-ID: 2013683
Ephemeris | Orbit Diagram | Orbital Elements | Mission Design | Physical Parameters | Discovery Circumstances | Close-Approach Data ]

[ show orbit diagram ]
Orbital Elements at Epoch 2459000.5 (2020-May-31.0) TDB
Reference: JPL 32 (heliocentric ecliptic J2000)
 Element Value Uncertainty (1-sigma)   Units 
e .07433213684758916 3.4825e-08  
a 3.062591232709369 1.7875e-08 au
q 2.834942282091389 1.0576e-07 au
i 8.407234869826166 4.4004e-06 deg
node 253.325070612946 2.8925e-05 deg
peri 45.16883212302138 4.4036e-05 deg
M 117.6312539048948 3.4102e-05 deg
tp 2458360.835564836646
(2018-Aug-30.33556484)
0.00018505 TDB
period 1957.63616398231
5.36
1.7139e-05
4.692e-08
d
yr
n .1838952541966083 1.61e-09 deg/d
Q 3.290240183327348 1.9204e-08 au
  Orbit Determination Parameters
   # obs. used (total)      1690  
   data-arc span      12033 days (32.94 yr)  
   first obs. used      1987-11-15  
   last obs. used      2020-10-25  
   planetary ephem.      DE431  
   SB-pert. ephem.      SB431-N16  
   condition code      0  
   norm. resid. RMS      .49818  
   source      ORB  
   producer      Otto Matic  
   solution date      2020-Nov-13 02:44:49  

Additional Information
 Earth MOID = 1.82659 au 
 Jupiter MOID = 1.85844 au 
 T_jup = 3.213 
[ hide covariance matrix ]
Orbital Elements at Epoch 2456966.5 (2014-Nov-05.0) TDB
Reference: JPL 32 (heliocentric ecliptic J2000)
 Element Value Uncertainty (1-sigma)   Units 
e .07784336645057166 3.4932e-08  
q 2.821901319956117 1.0656e-07 au
tp 2456401.357277207117
(2013-Apr-18.85727721)
0.00017596 TDB
node 253.5455127839184 2.9017e-05 deg
peri 44.51212309014934 4.2921e-05 deg
i 8.396040917660827 4.3942e-06 deg
  Orbit Determination Parameters
   # obs. used (total)      1690  
   data-arc span      12033 days (32.94 yr)  
   first obs. used      1987-11-15  
   last obs. used      2020-10-25  
   planetary ephem.      DE431  
   SB-pert. ephem.      SB431-N16  
   condition code      0  
   norm. resid. RMS      .49818  
   source      ORB  
   producer      Otto Matic  
   solution date      2020-Nov-13 02:44:49  

Additional Information
 Jupiter MOID = 1.85844 au 
 T_jup = 3.213 
Orbit Covariance (6×6)
  e q tp node peri i
e 1.220253440977757E-15 -3.678266615805944E-15 5.098034338667346E-13 -2.062639603284146E-15 7.12539921666348E-14 -5.568852001682825E-17
q -3.678266615805944E-15 1.135500106750332E-14 -1.671318719615938E-12 4.77843981117024E-15 -2.236629744811621E-13 9.438765909203292E-16
tp 5.098034338667346E-13 -1.671318719615938E-12 3.096202532508909E-8 4.216636647705165E-12 5.587365971957352E-9 2.684031399648448E-12
node -2.062639603284146E-15 4.77843981117024E-15 4.216636647705165E-12 8.419702823709679E-10 -8.319683337769654E-10 -2.910163156385756E-11
peri 7.12539921666348E-14 -2.236629744811621E-13 5.587365971957352E-9 -8.319683337769654E-10 1.842234488384029E-9 2.925069182730523E-11
i -5.568852001682825E-17 9.438765909203292E-16 2.684031399648448E-12 -2.910163156385756E-11 2.925069182730523E-11 1.930904401981394E-11

Ephemeris | Orbit Diagram | Orbital Elements | Mission Design | Physical Parameters | Discovery Circumstances | Close-Approach Data ]

Physical Parameter Table
Parameter Symbol Value Units Sigma Reference Notes
absolute magnitude H 13.2   n/a MPO452363  
diameter diameter 6.997 km 0.302 urn:nasa:pds:neowise_diameters_albedos::2.0[mainbelt] (http://adsabs.harvard.edu/abs/2011ApJ...741...68M)  
geometric albedo albedo 0.228   0.021 urn:nasa:pds:neowise_diameters_albedos::2.0[mainbelt] (http://adsabs.harvard.edu/abs/2011ApJ...741...68M)  

13683 (1997 PV3)          Discovered 1997-Aug-08 by Beijing Schmidt CCD Asteroid Program at Xinglong
Reference: 20000222/Numbers.arcLast Updated: 2004-04-19

[ show close-approach data ]
Alternate Designations
 1997 PV3 = 1987 VY1 = 1998 WN12 
Ephemeris | Orbit Diagram | Orbital Elements | Mission Design | Physical Parameters | Discovery Circumstances | Close-Approach Data ]
ABOUT SSD CREDITS/AWARDS PRIVACY/COPYRIGHT GLOSSARY LINKS
FirstGov 2020-Nov-26 07:59 UT
(server date/time)  
NASA Home Page
Site Manager:   Ryan S. Park
Webmaster  Alan B. Chamberlin